User: anonymous   Login
Location: Unspecified
(0.0000°N, 0.0000°E)
Time: 00:46:01
(UTC+00:00)
Language:

STARLINK-36462 - Orbit

View from above orbital plane
View from above orbital plane
View from above satellite
View from above satellite

Ground track
Ground track

The orbit is defined by the following mean orbital elements,

1 67321U          26145.56867486 +.00000000 +00000-0 +65887-3 0 00007
2 67321  43.0003 251.3501 0001264 276.6664  83.4044 15.27594433    04
Epoch (UTC): 25 May 2026 13:38:53
Eccentricity: 0.0001264
inclination: 43.0003°
perigee height: 482 km
apogee height: 484 km
right ascension of ascending node: 251.3501°
argument of perigee: 276.6664°
revolutions per day: 15.27594433
mean anomaly at epoch: 83.4044°

The dashed part of the orbit path shows where the satellite is in the earth's shadow,  

DLR